| time (UTC) | temp F | wind direction | speed knots | gust knots | rain 1hr in | rain 24hr in | rain mn in | humidity % | barometer mb |
| 20260505035517 | 51 | 248 | 1.7 | 2.6 | 0.00 | 0.61 | 0.01 | 94 | 1012.0 |
| 20260505034517 | 51 | 315 | 1.7 | 2.6 | 0.00 | 0.61 | 0.01 | 94 | 1011.9 |
| 20260505033517 | 51 | 293 | 3.5 | 6.1 | 0.00 | 0.61 | 0.01 | 94 | 1011.7 |
| 20260505032537 | 50 | 270 | 2.6 | 5.2 | 0.01 | 0.61 | 0.01 | 95 | 1011.6 |
| 20260505031517 | 50 | 293 | 1.7 | 3.5 | 0.01 | 0.61 | 0.01 | 94 | 1011.5 |
| 20260505030517 | 50 | 293 | 1.7 | 3.5 | 0.01 | 0.61 | 0.01 | 94 | 1011.6 |
| 20260505025517 | 50 | 0.0 | 0.0 | 0.01 | 0.61 | 0.01 | 95 | 1011.7 | |
| 20260505024517 | 50 | 0.0 | 0.9 | 0.01 | 0.61 | 0.01 | 95 | 1011.7 | |
| 20260505023517 | 50 | 315 | 1.7 | 3.5 | 0.01 | 0.61 | 0.01 | 94 | 1011.7 |
| 20260505022517 | 50 | 293 | 3.5 | 5.2 | 0.00 | 0.61 | 0.00 | 94 | 1011.7 |
| 20260505021517 | 49 | 293 | 2.6 | 6.1 | 0.00 | 0.61 | 0.00 | 94 | 1011.8 |
| 20260505020517 | 49 | 315 | 2.6 | 5.2 | 0.00 | 0.61 | 0.00 | 94 | 1011.8 |
| 20260505015517 | 49 | 293 | 3.5 | 7.8 | 0.00 | 0.61 | 0.00 | 94 | 1011.7 |
| 20260505014517 | 49 | 293 | 3.5 | 6.1 | 0.00 | 0.61 | 0.00 | 94 | 1011.7 |
| 20260505013517 | 49 | 293 | 3.5 | 8.7 | 0.00 | 0.61 | 0.00 | 93 | 1011.8 |
| 20260505012537 | 49 | 293 | 3.5 | 6.1 | 0.00 | 0.61 | 0.00 | 94 | 1011.8 |
| 20260505011517 | 49 | 293 | 2.6 | 5.2 | 0.00 | 0.61 | 0.00 | 94 | 1011.8 |
| 20260505010516 | 49 | 315 | 2.6 | 5.2 | 0.00 | 0.61 | 0.00 | 95 | 1011.8 |
| 20260505005517 | 49 | 293 | 1.7 | 6.1 | 0.00 | 0.61 | 0.00 | 94 | 1011.9 |
| 20260505004517 | 49 | 270 | 0.9 | 1.7 | 0.00 | 0.61 | 0.00 | 94 | 1012.0 |
| 20260505003537 | 48 | 315 | 0.9 | 1.7 | 0.00 | 0.61 | 0.00 | 94 | 1011.9 |
| 20260505002517 | 49 | 293 | 2.6 | 7.0 | 0.00 | 0.61 | 0.00 | 93 | 1011.9 |
| 20260505001517 | 49 | 293 | 3.5 | 5.2 | 0.00 | 0.61 | 0.00 | 93 | 1012.3 |
| 20260505000617 | 49 | 293 | 1.7 | 3.5 | 0.00 | 0.61 | 0.00 | 93 | 1012.3 |
| 20260504235517 | 49 | 293 | 1.7 | 3.5 | 0.00 | 0.61 | 0.61 | 92 | 1012.2 |
| 20260504234517 | 50 | 293 | 2.6 | 6.1 | 0.00 | 0.61 | 0.61 | 92 | 1012.3 |
| 20260504233518 | 50 | 293 | 3.5 | 5.2 | 0.00 | 0.61 | 0.61 | 92 | 1012.3 |
| 20260504232517 | 50 | 270 | 3.5 | 7.0 | 0.00 | 0.61 | 0.61 | 93 | 1012.2 |
| 20260504231517 | 50 | 270 | 3.5 | 6.1 | 0.00 | 0.61 | 0.61 | 93 | 1012.1 |
| 20260504230518 | 50 | 270 | 3.5 | 7.8 | 0.00 | 0.61 | 0.61 | 93 | 1012.2 |
| 20260504225517 | 50 | 293 | 2.6 | 5.2 | 0.00 | 0.61 | 0.61 | 94 | 1012.1 |
| 20260504224538 | 50 | 270 | 5.2 | 7.8 | 0.00 | 0.61 | 0.61 | 94 | 1012.2 |
| 20260504223517 | 50 | 293 | 4.3 | 7.8 | 0.00 | 0.61 | 0.61 | 94 | 1012.1 |
| 20260504222517 | 51 | 293 | 3.5 | 7.0 | 0.00 | 0.61 | 0.61 | 94 | 1012.2 |
| 20260504221517 | 51 | 293 | 2.6 | 5.2 | 0.00 | 0.61 | 0.61 | 94 | 1012.0 |
| 20260504220517 | 51 | 270 | 1.7 | 6.1 | 0.00 | 0.61 | 0.61 | 94 | 1012.0 |
| 20260504215517 | 51 | 270 | 3.5 | 6.1 | 0.00 | 0.61 | 0.61 | 93 | 1011.9 |
| 20260504214517 | 52 | 293 | 1.7 | 4.3 | 0.00 | 0.61 | 0.61 | 93 | 1011.9 |
| 20260504213517 | 52 | 293 | 2.6 | 4.3 | 0.00 | 0.61 | 0.61 | 93 | 1011.9 |
| 20260504212517 | 52 | 293 | 1.7 | 3.5 | 0.00 | 0.61 | 0.61 | 93 | 1011.9 |
| 20260504211517 | 53 | 270 | 2.6 | 5.2 | 0.00 | 0.61 | 0.61 | 92 | 1011.9 |
| 20260504210517 | 53 | 293 | 2.6 | 3.5 | 0.00 | 0.61 | 0.61 | 92 | 1011.9 |
| 20260504205517 | 53 | 270 | 2.6 | 6.1 | 0.00 | 0.61 | 0.61 | 92 | 1011.8 |
| 20260504204517 | 54 | 270 | 2.6 | 7.8 | 0.00 | 0.61 | 0.61 | 92 | 1011.8 |
| 20260504203517 | 54 | 293 | 2.6 | 3.5 | 0.00 | 0.61 | 0.61 | 91 | 1011.7 |
| 20260504202517 | 54 | 270 | 1.7 | 3.5 | 0.00 | 0.61 | 0.61 | 92 | 1011.8 |
| 20260504201537 | 54 | 270 | 0.9 | 3.5 | 0.01 | 0.61 | 0.61 | 92 | 1011.6 |
| 20260504200537 | 54 | 225 | 2.6 | 4.3 | 0.02 | 0.61 | 0.61 | 92 | 1011.5 |
| 20260504195516 | 54 | 203 | 2.6 | 5.2 | 0.04 | 0.61 | 0.61 | 92 | 1011.6 |
| 20260504194516 | 54 | 225 | 2.6 | 5.2 | 0.07 | 0.61 | 0.61 | 93 | 1011.6 |
| 20260504193537 | 54 | 270 | 1.7 | 3.5 | 0.11 | 0.61 | 0.61 | 92 | 1011.7 |
| 20260504192517 | 54 | 248 | 3.5 | 7.8 | 0.16 | 0.61 | 0.61 | 93 | 1012.0 |
| 20260504191517 | 54 | 248 | 2.6 | 4.3 | 0.15 | 0.60 | 0.60 | 92 | 1012.0 |
| 20260504190517 | 54 | 293 | 6.1 | 11.3 | 0.14 | 0.59 | 0.59 | 91 | 1011.8 |
| 20260504185517 | 54 | 293 | 4.3 | 8.7 | 0.12 | 0.57 | 0.57 | 89 | 1011.4 |
| 20260504184517 | 55 | 293 | 3.5 | 7.8 | 0.09 | 0.54 | 0.54 | 86 | 1011.3 |
| 20260504183517 | 58 | 270 | 7.8 | 13.0 | 0.05 | 0.50 | 0.50 | 79 | 1011.6 |
| 20260504182517 | 62 | 248 | 8.7 | 16.5 | 0.00 | 0.45 | 0.45 | 71 | 1011.3 |
| 20260504181516 | 62 | 135 | 2.6 | 4.3 | 0.00 | 0.45 | 0.45 | 82 | 1010.3 |
| 20260504180516 | 62 | 113 | 3.5 | 6.1 | 0.00 | 0.45 | 0.45 | 82 | 1010.1 |
| 20260504175517 | 62 | 135 | 2.6 | 5.2 | 0.00 | 0.45 | 0.45 | 82 | 1010.0 |
| 20260504174517 | 63 | 135 | 3.5 | 7.0 | 0.00 | 0.45 | 0.45 | 81 | 1009.8 |
| 20260504173557 | 63 | 135 | 4.3 | 7.0 | 0.00 | 0.45 | 0.45 | 81 | 1010.0 |
| 20260504172537 | 63 | 113 | 2.6 | 5.2 | 0.00 | 0.45 | 0.45 | 81 | 1010.0 |
| 20260504171517 | 63 | 135 | 2.6 | 7.0 | 0.00 | 0.45 | 0.45 | 81 | 1010.1 |
| 20260504170516 | 63 | 90 | 2.6 | 6.1 | 0.00 | 0.45 | 0.45 | 82 | 1010.1 |
| 20260504150518 | 61 | 113 | 1.7 | 3.5 | 0.00 | 0.45 | 0.45 | 90 | 1010.5 |
| 20260504140518 | 59 | 338 | 0.9 | 1.7 | 0.10 | 0.45 | 0.45 | 92 | 1010.9 |
| 20260504130518 | 61 | 45 | 3.5 | 8.7 | 0.34 | 0.35 | 0.35 | 87 | 1010.7 |
| 20260504110518 | 70 | 135 | 4.3 | 8.7 | 0.00 | 0.00 | 0.00 | 67 | 1011.3 |
| 20260504100518 | 71 | 45 | 1.7 | 4.3 | 0.00 | 0.00 | 0.00 | 63 | 1011.7 |
| 20260504081517 | 64 | 68 | 1.7 | 2.6 | 0.00 | 0.00 | 0.00 | 76 | 1012.5 |
| 20260504080517 | 64 | 315 | 1.7 | 4.3 | 0.00 | 0.00 | 0.00 | 75 | 1012.6 |
| 20260504050517 | 57 | 225 | 0.9 | 1.7 | 0.00 | 0.00 | 0.00 | 90 | 1012.7 |
| 20260504045517 | 57 | 225 | 0.9 | 1.7 | 0.00 | 0.00 | 0.00 | 90 | 1012.8 |
| 20260504044516 | 57 | 293 | 0.9 | 1.7 | 0.00 | 0.00 | 0.00 | 89 | 1012.8 |
| 20260504043516 | 57 | 293 | 0.9 | 1.7 | 0.00 | 0.00 | 0.00 | 89 | 1012.9 |
| 20260504042516 | 57 | 0.0 | 0.9 | 0.00 | 0.00 | 0.00 | 90 | 1012.8 | |
| 20260504041517 | 57 | 0.0 | 2.6 | 0.00 | 0.00 | 0.00 | 90 | 1013.0 | |
| 20260504040516 | 57 | 270 | 0.9 | 2.6 | 0.00 | 0.00 | 0.00 | 90 | 1013.1 |